Total_Precipitation_Accumulation
0.49 0.55 0.56 0.52 0.49 0.56 0.59 0.60 0.61 0.61 0.51 0.47 0.46 0.46 0.45 0.45 0.47 0.52 0.53 0.56 0.63 0.72 0.78 0.80 0.82 0.84 0.87 0.84 0.89 0.89 0.84 0.91 0.91 0.77 0.84 0.90 0.79 0.62 0.50 0.48 0.48 0.52 0.49
0.49 0.55 0.59 0.61 0.53 0.54 0.58 0.61 0.63 0.69 0.70 0.65 0.60 0.56 0.48 0.46 0.51 0.58 0.65 0.62 0.64 0.70 0.91 1.11 1.12 1.11 1.03 0.94 1.01 0.98 0.93 1.06 1.00 0.90 0.99 1.02 0.97 0.77 0.63 0.53 0.44 0.44 0.48
0.54 0.56 0.59 0.63 0.60 0.58 0.66 0.68 0.66 0.74 0.81 0.81 0.76 0.66 0.55 0.48 0.47 0.52 0.62 0.64 0.70 0.82 0.97 1.10 1.20 1.30 1.19 1.09 1.07 1.05 1.06 1.14 1.13 1.02 1.04 1.18 1.20 1.01 0.79 0.57 0.42 0.44 0.43
0.55 0.59 0.61 0.64 0.69 0.72 0.75 0.79 0.78 0.81 0.84 0.88 0.85 0.80 0.72 0.59 0.52 0.53 0.57 0.63 0.77 0.94 0.99 0.92 1.00 1.24 1.34 1.28 1.15 1.08 1.11 1.16 1.16 1.14 1.17 1.31 1.36 1.28 1.06 0.77 0.59 0.51 0.43
0.71 0.75 0.78 0.88 0.96 1.00 1.03 1.02 0.96 0.95 0.94 0.99 1.02 0.98 0.90 0.77 0.62 0.64 0.71 0.64 0.70 0.78 0.80 0.74 0.75 0.91 1.15 1.31 1.23 1.16 1.16 1.14 1.14 1.21 1.27 1.36 1.38 1.43 1.27 1.00 0.79 0.67 0.53
0.85 0.93 0.98 1.13 1.23 1.32 1.42 1.49 1.41 1.33 1.35 1.38 1.33 1.24 1.13 0.86 0.78 0.72 0.69 0.69 0.74 0.77 0.76 0.75 0.66 0.60 0.68 0.89 1.08 1.21 1.27 1.19 1.13 1.20 1.31 1.35 1.36 1.36 1.34 1.17 0.95 0.76 0.62
0.96 1.13 1.24 1.39 1.52 1.64 1.72 1.76 1.71 1.72 1.76 1.77 1.66 1.48 1.33 1.18 0.97 0.80 0.70 0.67 0.68 0.70 0.73 0.73 0.60 0.51 0.59 0.62 0.77 0.89 1.01 1.06 1.05 1.10 1.18 1.27 1.37 1.48 1.48 1.29 1.10 0.95 0.75
1.17 1.34 1.52 1.55 1.58 1.65 1.69 1.66 1.68 1.78 1.82 1.78 1.68 1.55 1.47 1.35 1.12 0.88 0.78 0.66 0.69 0.71 0.73 0.74 0.71 0.64 0.62 0.66 0.70 0.71 0.74 0.80 0.85 0.88 0.98 1.14 1.33 1.51 1.64 1.53 1.38 1.13 0.93
1.19 1.28 1.35 1.46 1.56 1.60 1.61 1.66 1.70 1.71 1.61 1.49 1.44 1.44 1.41 1.41 1.24 0.99 0.89 0.82 0.87 0.86 0.84 0.82 0.80 0.74 0.73 0.62 0.63 0.67 0.68 0.72 0.74 0.79 0.84 0.99 1.24 1.44 1.52 1.53 1.42 1.22 1.00
1.19 1.22 1.23 1.36 1.48 1.55 1.58 1.61 1.57 1.54 1.50 1.46 1.39 1.39 1.39 1.38 1.28 0.99 0.91 0.88 0.96 0.96 0.97 0.94 0.85 0.75 0.69 0.59 0.59 0.67 0.66 0.67 0.74 0.76 0.79 0.81 0.90 1.18 1.44 1.30 1.23 1.17 1.02
1.03 1.12 1.19 1.34 1.45 1.47 1.53 1.53 1.53 1.52 1.54 1.54 1.47 1.38 1.35 1.33 1.29 1.01 0.88 0.85 0.96 1.06 1.03 0.98 0.94 0.81 0.63 0.57 0.57 0.63 0.63 0.68 0.80 0.83 0.83 0.85 0.92 1.02 1.19 1.22 1.14 1.06 1.00
0.83 0.89 0.94 1.04 1.17 1.23 1.32 1.33 1.37 1.36 1.32 1.30 1.28 1.21 1.18 1.20 1.13 0.99 0.79 0.71 0.80 0.96 1.05 1.07 1.07 0.90 0.66 0.54 0.46 0.43 0.41 0.41 0.54 0.67 0.73 0.76 0.79 0.88 0.99 1.13 1.16 1.12 1.00
0.71 0.72 0.73 0.78 0.94 1.10 1.16 1.14 1.16 1.17 1.16 1.13 1.12 1.10 1.06 1.03 0.96 0.75 0.60 0.51 0.56 0.72 0.88 0.98 0.91 0.76 0.63 0.51 0.42 0.38 0.35 0.34 0.44 0.54 0.61 0.65 0.66 0.74 0.97 1.24 1.38 1.40 1.29
0.73 0.73 0.74 0.77 0.87 1.12 1.25 1.19 1.13 1.11 1.08 1.06 1.01 1.01 1.04 1.07 1.02 0.82 0.62 0.48 0.51 0.64 0.73 0.75 0.75 0.74 0.72 0.67 0.55 0.45 0.38 0.39 0.45 0.52 0.62 0.73 0.82 0.91 1.02 1.17 1.35 1.40 1.38
0.60 0.58 0.58 0.65 0.77 0.97 1.12 1.13 1.00 0.97 0.96 0.96 0.93 0.90 0.86 0.84 0.82 0.71 0.60 0.59 0.66 0.74 0.75 0.82 0.83 0.89 0.92 0.92 0.85 0.76 0.70 0.67 0.62 0.63 0.75 0.88 0.93 0.98 1.02 1.12 1.26 1.29 1.19
0.62 0.57 0.56 0.58 0.67 0.86 1.07 1.12 0.92 0.75 0.73 0.73 0.68 0.65 0.62 0.56 0.52 0.52 0.50 0.50 0.56 0.61 0.61 0.77 0.89 0.98 1.06 1.08 1.09 1.02 0.93 0.85 0.78 0.80 0.86 0.95 0.99 1.00 1.03 1.14 1.25 1.26 1.13
0.62 0.57 0.53 0.53 0.57 0.69 0.92 1.15 1.17 0.91 0.69 0.60 0.48 0.39 0.37 0.32 0.35 0.40 0.46 0.43 0.42 0.43 0.45 0.61 0.77 0.90 1.02 1.08 1.10 1.04 0.98 0.93 0.91 0.93 0.98 1.02 1.06 1.07 1.08 1.10 1.19 1.23 1.14
0.58 0.54 0.49 0.47 0.48 0.56 0.78 1.05 1.24 1.21 1.04 0.78 0.49 0.32 0.28 0.26 0.29 0.39 0.46 0.44 0.42 0.38 0.38 0.49 0.63 0.77 0.92 1.06 1.12 1.09 1.06 1.05 0.98 0.96 1.04 1.06 1.10 1.13 1.11 1.07 1.11 1.19 1.17
0.51 0.50 0.47 0.46 0.47 0.51 0.68 0.94 1.14 1.21 1.15 1.03 0.74 0.42 0.29 0.28 0.31 0.42 0.45 0.47 0.49 0.45 0.44 0.49 0.55 0.66 0.84 1.02 1.12 1.17 1.18 1.12 1.01 1.00 1.03 1.08 1.09 1.13 1.11 1.05 1.10 1.20 1.21
0.41 0.38 0.32 0.33 0.38 0.42 0.52 0.74 0.98 1.12 1.06 1.01 0.85 0.50 0.28 0.27 0.37 0.52 0.59 0.66 0.65 0.57 0.53 0.55 0.58 0.67 0.83 1.01 1.11 1.16 1.20 1.15 1.09 1.07 1.05 1.10 1.12 1.13 1.12 1.08 1.08 1.15 1.12
0.35 0.30 0.22 0.21 0.30 0.36 0.42 0.59 0.83 1.01 0.97 0.89 0.77 0.47 0.28 0.33 0.46 0.59 0.72 0.76 0.76 0.71 0.67 0.63 0.63 0.69 0.81 0.95 1.04 1.08 1.14 1.13 1.08 1.07 1.06 1.09 1.13 1.14 1.19 1.19 1.13 1.14 1.15
0.30 0.30 0.26 0.27 0.32 0.35 0.39 0.56 0.78 0.92 0.89 0.84 0.75 0.52 0.37 0.43 0.55 0.65 0.71 0.70 0.68 0.63 0.61 0.66 0.68 0.73 0.80 0.87 0.95 1.05 1.10 1.11 1.10 1.08 1.09 1.11 1.15 1.15 1.19 1.21 1.17 1.14 1.14
0.23 0.25 0.25 0.27 0.31 0.30 0.40 0.58 0.73 0.81 0.79 0.75 0.65 0.54 0.50 0.54 0.57 0.61 0.65 0.66 0.65 0.62 0.62 0.67 0.74 0.77 0.83 0.86 0.90 0.98 1.02 1.01 1.01 1.02 1.08 1.11 1.13 1.13 1.14 1.14 1.11 1.12 1.09
0.22 0.25 0.28 0.30 0.32 0.39 0.49 0.62 0.68 0.67 0.66 0.64 0.61 0.60 0.62 0.63 0.59 0.58 0.62 0.65 0.68 0.70 0.70 0.69 0.71 0.71 0.74 0.77 0.80 0.82 0.86 0.83 0.80 0.83 0.89 0.97 1.01 1.03 1.05 1.08 1.09 1.08 1.08
0.20 0.23 0.29 0.35 0.39 0.45 0.54 0.63 0.65 0.63 0.58 0.55 0.56 0.59 0.60 0.57 0.59 0.62 0.67 0.70 0.71 0.69 0.65 0.65 0.66 0.65 0.63 0.62 0.62 0.64 0.67 0.62 0.55 0.59 0.67 0.81 0.89 0.93 0.94 0.99 1.03 1.06 1.07
0.17 0.20 0.26 0.31 0.35 0.39 0.49 0.58 0.57 0.52 0.48 0.48 0.52 0.58 0.60 0.60 0.64 0.67 0.69 0.73 0.75 0.72 0.70 0.67 0.62 0.61 0.60 0.60 0.58 0.59 0.54 0.45 0.41 0.44 0.48 0.61 0.76 0.84 0.88 0.94 0.97 1.04 1.06